Location: �perlecques
(50.8057°N, 2.1521°E)
Time: 00:43:44
(UTC+00:00)

IGS 5A - Pass Details

Date: 09 April 2020
Orbit: 585 x 587 km, 97.6° (Epoch: 29 May)

Event Time Altitude Azimuth Distance (km) Brightness Sun altitude
Exits shadow 20:20:46 28° 112° (ESE) 1,111 4.3 -15.6°
Maximum altitude 20:22:15 38° 68° (ENE) 898 4.1 -15.8°
Drops below altitude 10° 20:26:08 10° 0° (N) 1,922 6.6 -16.3°
Sets 20:28:23 0° 353° (N) 2,828 7.6 -16.6°
